GW4913 Weather Reports


time (UTC)temp
F
wind
direction
speed
knots
gust
knots
rain 1hr
in
rain 24hr
in
rain mn
in
humidity
%
barometer
mb
20260509024519 80 0.0 3.5 0.00 0.00 0.00 69 1020.7
20260509023519 80 0.0 1.7 0.00 0.00 0.00 69 1020.4
20260509022519 79 45 0.9 3.5 0.00 0.00 0.00 70 1020.3
20260509021519 79 0.0 0.9 0.00 0.00 0.00 70 1020.2
20260509020520 78 23 0.9 5.2 0.00 0.00 0.00 71 1020.0
20260509015519 77 0.0 3.5 0.00 0.00 0.00 73 1019.9
20260509014519 76 0.0 2.6 0.00 0.00 0.00 74 1019.6
20260509013519 76 0.0 1.7 0.00 0.00 0.00 74 1019.6
20260509012519 76 0.0 1.7 0.00 0.00 0.00 75 1019.6
20260509011519 75 0.0 0.0 0.00 0.00 0.00 79 1019.7
20260509010519 74 0.0 0.9 0.00 0.00 0.00 80 1019.7
20260509005559 74 0.0 0.0 0.00 0.00 0.00 82 1020.1
20260509004539 73 0.0 0.0 0.00 0.00 0.00 82 1020.0
20260509003519 73 0.0 0.9 0.00 0.00 0.00 83 1019.9
20260509002519 73 0.0 1.7 0.00 0.00 0.00 83 1019.8
20260509001519 73 0.0 0.9 0.00 0.00 0.00 82 1019.6
20260509000519 73 0.0 1.7 0.00 0.00 0.00 83 1019.5
20260508235519 73 0.0 0.9 0.00 0.00 0.00 83 1019.2
20260508234539 73 0.0 0.9 0.00 0.00 0.00 83 1019.1
20260508233519 73 0.0 1.7 0.00 0.00 0.00 83 1019.1
20260508232519 73 0.0 1.7 0.00 0.00 0.00 82 1019.2
20260508231519 74 0.0 0.9 0.00 0.00 0.00 82 1019.0
20260508230519 74 0.0 1.7 0.00 0.00 0.00 82 1018.8
20260508225519 74 0.0 3.5 0.00 0.00 0.00 82 1018.3
20260508224519 74 0.0 3.5 0.00 0.00 0.00 82 1018.4
20260508223519 74 0.0 2.6 0.00 0.00 0.00 82 1018.3
20260508222519 74 0.0 2.6 0.00 0.00 0.00 82 1018.2
20260508221518 74 0.0 2.6 0.00 0.00 0.00 82 1018.3
20260508220518 74 0.0 0.0 0.00 0.00 0.00 82 1018.1
20260508215539 74 0.0 1.7 0.00 0.00 0.00 81 1018.4
20260508214518 75 0.0 1.7 0.00 0.00 0.00 81 1018.5
20260508213519 75 0.0 2.6 0.00 0.00 0.00 81 1018.7
20260508212518 75 68 0.9 3.5 0.00 0.00 0.00 81 1018.7
20260508211518 75 0.0 1.7 0.00 0.00 0.00 81 1018.7
20260508210518 75 0.0 2.6 0.00 0.00 0.00 81 1018.7
20260508205518 75 0.0 2.6 0.00 0.00 0.00 81 1018.6
20260508204518 75 0.0 0.9 0.00 0.00 0.00 81 1018.6
20260508203518 75 0.0 3.5 0.00 0.00 0.00 81 1018.6
20260508202518 75 45 1.7 6.1 0.00 0.00 0.00 81 1018.7
20260508201520 75 23 0.9 5.2 0.00 0.00 0.00 81 1018.9
20260508200518 76 0.0 2.6 0.00 0.00 0.00 80 1018.9
20260508195518 76 45 0.9 4.3 0.00 0.00 0.00 80 1019.0
20260508194518 76 45 0.9 4.3 0.00 0.00 0.00 80 1019.2
20260508193518 76 45 0.9 4.3 0.00 0.00 0.00 80 1019.2
20260508192518 76 23 0.9 5.2 0.00 0.00 0.00 79 1019.4
20260508191518 77 68 0.9 4.3 0.00 0.00 0.00 79 1019.5
20260508190518 77 90 1.7 7.8 0.00 0.00 0.00 79 1019.6
20260508185518 77 45 1.7 7.0 0.00 0.00 0.00 79 1019.5
20260508184518 77 90 0.9 7.0 0.00 0.00 0.00 78 1019.7
20260508183518 77 90 1.7 8.7 0.00 0.00 0.00 78 1019.9
20260508182518 77 45 0.9 4.3 0.00 0.00 0.00 79 1020.2
20260508181519 78 90 2.6 9.6 0.00 0.00 0.00 78 1020.4
20260508180539 78 23 1.7 7.0 0.00 0.00 0.00 78 1020.5
20260508175519 78 90 0.9 3.5 0.00 0.00 0.00 78 1020.6
20260508174559 78 45 2.6 7.0 0.00 0.00 0.00 77 1020.7
20260508173519 78 68 1.7 6.1 0.00 0.00 0.00 77 1020.6
20260508172520 78 90 0.9 3.5 0.00 0.00 0.00 78 1020.6
20260508171518 78 113 2.6 7.0 0.00 0.00 0.00 78 1020.7
20260508170519 78 113 3.5 8.7 0.00 0.00 0.00 78 1020.5
20260508165518 79 90 2.6 8.7 0.00 0.00 0.00 77 1020.7
20260508164540 79 90 2.6 9.6 0.00 0.00 0.00 77 1020.6
20260508163520 79 90 1.7 7.0 0.00 0.00 0.00 77 1020.3
20260508162518 79 90 1.7 7.8 0.00 0.00 0.00 76 1020.2
20260508161519 79 90 1.7 7.8 0.00 0.00 0.00 76 1020.1
20260508160518 79 90 3.5 12.2 0.00 0.00 0.00 76 1020.0
20260508155519 80 113 1.7 8.7 0.00 0.00 0.00 76 1020.2
20260508154539 80 45 2.6 13.9 0.00 0.00 0.00 75 1020.0
20260508153518 80 90 4.3 13.0 0.00 0.00 0.00 75 1019.5
20260508152518 80 113 3.5 12.2 0.00 0.00 0.00 74 1019.5
20260508151538 81 90 3.5 9.6 0.00 0.00 0.00 74 1019.3
20260508150558 81 113 2.6 11.3 0.00 0.00 0.00 73 1019.3
20260508145518 81 68 2.6 10.4 0.00 0.00 0.00 72 1019.1
20260508144538 81 45 2.6 9.6 0.00 0.00 0.00 71 1018.8
20260508143519 82 23 3.5 11.3 0.00 0.00 0.00 70 1018.6
20260508142538 82 90 3.5 11.3 0.00 0.00 0.00 68 1018.4
20260508141518 82 113 2.6 8.7 0.00 0.00 0.00 67 1018.3
20260508140518 82 90 1.7 5.2 0.00 0.00 0.00 64 1017.7
20260508135518 82 90 1.7 7.0 0.00 0.00 0.00 60 1017.7
20260508134518 83 68 2.6 8.7 0.00 0.00 0.00 58 1017.7
20260508133518 83 90 1.7 7.8 0.00 0.00 0.00 57 1017.5
20260508132518 83 113 3.5 10.4 0.00 0.00 0.00 57 1017.2
20260508131518 83 113 1.7 9.6 0.00 0.00 0.00 58 1017.1
20260508130518 84 90 7.0 15.6 0.00 0.00 0.00 59 1017.1
20260508125518 85 45 5.2 15.6 0.00 0.00 0.00 62 1017.1
20260508124518 88 45 6.1 14.8 0.00 0.00 0.00 60 1016.8
20260508123518 89 23 2.6 10.4 0.00 0.00 0.00 47 1016.3
20260508122518 89 45 2.6 9.6 0.00 0.00 0.00 47 1016.4
20260508121542 90 0 1.7 7.0 0.00 0.00 0.00 46 1016.4
20260508120520 90 45 3.5 9.6 0.00 0.00 0.00 46 1016.2
20260508115520 90 45 3.5 8.7 0.00 0.00 0.00 46 1016.2
20260508114540 90 45 2.6 9.6 0.00 0.00 0.00 45 1016.0
20260508113540 90 23 2.6 7.0 0.00 0.00 0.00 45 1016.3
20260508112520 90 90 1.7 7.8 0.00 0.00 0.00 46 1016.4
20260508111520 90 45 3.5 9.6 0.00 0.00 0.00 45 1016.4
20260508110520 91 45 2.6 6.1 0.00 0.00 0.00 45 1016.4
20260508105520 91 90 1.7 7.0 0.00 0.00 0.00 46 1016.3
20260508104520 90 45 2.6 7.0 0.00 0.00 0.00 46 1016.4
20260508103520 90 45 2.6 9.6 0.00 0.00 0.00 47 1016.5
20260508102518 90 23 0.9 6.1 0.00 0.00 0.00 48 1016.4
20260508101527 89 113 0.9 5.2 0.00 0.00 0.00 49 1016.5
20260508101121 89 45 2.6 7.8 0.00 0.00 0.00 49 1016.6
20260508100021 89 45 4.3 8.7 0.00 0.00 0.00 48 1016.6
20260508095635 90 23 2.6 11.3 0.00 0.00 0.00 48 1016.8
20260508094710 90 90 1.7 6.1 0.00 0.00 0.00 47 1017.0
20260508094017 91 113 1.7 5.2 0.00 0.00 0.00 47 1017.1
20260508093751 91 113 1.7 6.1 0.00 0.00 0.00 47 1016.8
20260508093019 91 45 0.9 6.1 0.00 0.00 0.00 48 1017.0
20260508092019 91 45 1.7 5.2 0.00 0.00 0.00 46 1017.0
20260508091038 92 113 1.7 6.1 0.00 0.00 0.00 47 1017.2
20260508090039 90 293 0.9 3.5 0.00 0.00 0.00 48 1017.3
20260508085019 91 135 0.9 5.2 0.00 0.00 0.00 46 1017.4
20260508084039 90 45 3.5 7.0 0.00 0.00 0.00 47 1017.6
20260508083018 90 68 0.9 6.1 0.00 0.00 0.00 48 1017.7
20260508082018 90 45 2.6 7.8 0.00 0.00 0.00 48 1017.9
20260508081518 90 90 1.7 10.4 0.00 0.00 0.00 48 1018.0
20260508080537 90 23 0.9 5.2 0.00 0.00 0.00 49 1018.2
20260508075518 89 45 3.5 7.0 0.00 0.00 0.00 49 1018.2
20260508074518 89 45 4.3 11.3 0.00 0.00 0.00 49 1018.5
20260508073538 89 45 2.6 8.7 0.00 0.00 0.00 50 1018.8
20260508072538 89 23 3.5 8.7 0.00 0.00 0.00 51 1018.8
20260508071518 89 68 2.6 9.6 0.00 0.00 0.00 49 1019.0
20260508070518 89 90 1.7 5.2 0.00 0.00 0.00 52 1019.2
20260508065519 88 23 2.6 9.6 0.00 0.00 0.00 51 1019.4
20260508064518 88 293 1.7 8.7 0.00 0.00 0.00 53 1019.5
20260508063518 88 135 0.9 3.5 0.00 0.00 0.00 54 1019.6
20260508062518 88 90 1.7 7.0 0.00 0.00 0.00 54 1019.9
20260508061627 87 23 1.7 5.2 0.00 0.00 0.00 55 1020.0
20260508061018 88 113 1.7 6.1 0.00 0.00 0.00 55 1020.2
20260508060038 87 45 2.6 7.8 0.00 0.00 0.00 57 1020.3
20260508055018 87 0 1.7 6.1 0.00 0.00 0.00 57 1020.4
20260508054018 86 0 1.7 8.7 0.00 0.00 0.00 60 1020.4
20260508053018 87 0.0 3.5 0.00 0.00 0.00 60 1020.9
20260508052554 86 0.0 4.3 0.00 0.00 0.00 60 1020.7
20260508052025 85 45 1.7 7.0 0.00 0.00 0.00 62 1020.7
20260508051525 85 293 0.9 4.3 0.00 0.00 0.00 62 1020.7
20260508051109 85 0.0 3.5 0.00 0.00 0.00 63 1020.7
20260508050555 84 45 2.6 7.0 0.00 0.00 0.00 62 1020.8
20260508050112 85 45 1.7 7.0 0.00 0.00 0.00 62 1020.9
20260508045922 84 68 1.7 6.1 0.00 0.00 0.00 64 1020.8
20260508044721 83 45 0.9 4.3 0.00 0.00 0.00 64 1020.7
20260508044253 83 68 1.7 6.1 0.00 0.00 0.00 64 1020.7
20260508043518 84 90 1.7 7.0 0.00 0.00 0.00 64 1020.9
20260508042547 83 315 0.9 5.2 0.00 0.00 0.00 66 1020.7
20260508042114 82 45 1.7 5.2 0.00 0.00 0.00 68 1020.7
20260508041518 82 45 1.7 4.3 0.00 0.00 0.00 67 1020.6
20260508040518 82 45 2.6 7.0 0.00 0.00 0.00 67 1020.7
20260508035518 82 23 0.9 5.2 0.00 0.00 0.00 70 1020.9
20260508034538 82 45 1.7 7.8 0.00 0.00 0.00 69 1021.0
20260508033540 82 0.0 4.3 0.00 0.00 0.00 69 1020.9
20260508032520 80 68 1.7 5.2 0.00 0.00 0.00 72 1020.8
20260508031520 80 180 0.9 4.3 0.00 0.00 0.00 72 1020.8
20260508030520 80 90 0.9 6.1 0.00 0.00 0.00 74 1020.9
20260508025520 80 90 0.9 6.1 0.00 0.00 0.00 75 1020.9